GW4886 Weather Reports


time (UTC)temp
F
wind
direction
speed
knots
gust
knots
rain 1hr
in
rain 24hr
in
rain mn
in
humidity
%
barometer
mb
20260505034907 47 249 0.0 0.9 0.00 0.03 0.03 99 1014.3
20260505034403 46 260 0.0 1.7 0.00 0.03 0.03 99 1014.2
20260505033900 47 247 0.9 1.7 0.00 0.03 0.03 99 1014.3
20260505033356 46 316 0.9 2.6 0.00 0.03 0.03 99 1014.3
20260505032855 47 328 0.0 0.0 0.00 0.03 0.03 99 1014.2
20260505032351 47 287 0.9 0.9 0.00 0.03 0.03 99 1014.1
20260505031848 48 260 0.0 0.0 0.00 0.03 0.03 99 1014.3
20260505031345 48 244 0.0 1.7 0.00 0.03 0.03 99 1014.3
20260505030842 47 255 0.9 0.9 0.00 0.03 0.03 99 1014.3
20260505030338 47 305 0.9 0.9 0.00 0.03 0.03 99 1014.1
20260505025833 47 277 0.0 0.0 0.00 0.03 0.03 99 1014.2
20260505025331 48 255 0.0 1.7 0.00 0.03 0.03 99 1014.1
20260505024830 48 245 0.0 1.7 0.00 0.03 0.03 99 1014.5
20260505024327 48 258 0.9 1.7 0.00 0.03 0.03 99 1014.3
20260505023824 48 337 0.0 0.9 0.00 0.03 0.03 99 1014.3
20260505023321 48 284 0.0 0.9 0.00 0.03 0.03 99 1014.4
20260505022818 49 246 0.0 0.0 0.00 0.03 0.03 99 1014.3
20260505022315 49 292 0.9 2.6 0.00 0.03 0.03 99 1014.2
20260505021812 49 262 0.0 1.7 0.00 0.03 0.03 98 1014.1
20260505021309 49 261 0.0 0.9 0.00 0.03 0.03 98 1014.2
20260505020805 49 261 0.9 1.7 0.00 0.03 0.03 99 1014.0
20260505020300 49 261 0.0 0.0 0.00 0.03 0.03 98 1014.3
20260505015757 50 261 0.0 0.9 0.00 0.03 0.03 97 1014.0
20260505015254 50 262 0.0 0.0 0.00 0.03 0.03 97 1014.2
20260505014752 50 261 0.0 0.0 0.00 0.03 0.03 97 1014.3
20260505014249 50 261 0.0 0.9 0.00 0.03 0.03 96 1014.2
20260505013745 50 281 0.0 0.9 0.00 0.03 0.03 96 1014.2
20260505013242 51 256 0.0 0.0 0.00 0.03 0.03 95 1014.1
20260505012740 51 268 0.9 1.7 0.00 0.03 0.03 95 1014.2
20260505012237 51 253 0.0 0.9 0.00 0.03 0.03 94 1014.0
20260505011733 52 252 0.0 1.7 0.00 0.03 0.03 92 1013.9
20260505011231 52 266 0.0 0.9 0.00 0.03 0.03 94 1014.0
20260505010726 51 270 0.9 1.7 0.00 0.03 0.03 95 1014.1
20260505010222 52 262 0.9 1.7 0.00 0.03 0.03 94 1013.9
20260505005719 51 259 0.9 1.7 0.00 0.03 0.03 95 1013.6
20260505005216 52 252 0.0 0.0 0.00 0.03 0.03 96 1013.8
20260505004713 52 251 0.9 1.7 0.00 0.03 0.03 94 1013.9
20260505004209 53 246 1.7 2.6 0.00 0.03 0.03 93 1013.7
20260505003707 54 254 1.7 2.6 0.00 0.03 0.03 92 1013.6
20260505003205 54 255 0.0 0.9 0.00 0.03 0.03 92 1013.7
20260505002701 55 256 0.9 2.6 0.00 0.03 0.03 88 1013.7
20260505002159 53 257 3.5 3.5 0.00 0.03 0.03 91 1013.5
20260505001655 53 247 0.0 0.0 0.00 0.03 0.03 96 1013.4
20260505001153 53 247 0.0 1.7 0.00 0.03 0.03 96 1013.6
20260505000650 53 259 1.7 1.7 0.00 0.03 0.03 96 1013.4
20260505000148 54 265 1.7 2.6 0.00 0.03 0.03 95 1013.4
20260504235643 55 260 1.7 2.6 0.00 0.03 0.03 94 1013.6
20260504235140 55 268 0.9 1.7 0.00 0.03 0.03 93 1013.5
20260504234638 55 251 1.7 1.7 0.00 0.03 0.03 95 1013.4
20260504234135 56 257 0.9 0.9 0.00 0.03 0.03 94 1013.2
20260504233631 56 271 0.9 1.7 0.00 0.03 0.03 92 1013.4
20260504233126 56 279 1.7 1.7 0.00 0.03 0.03 93 1013.4
20260504232625 57 268 0.0 1.7 0.00 0.03 0.03 90 1013.4
20260504232121 58 261 1.7 2.6 0.00 0.03 0.03 88 1013.4
20260504231618 57 248 1.7 3.5 0.00 0.03 0.03 89 1013.4
20260504231114 58 272 2.6 2.6 0.00 0.03 0.03 86 1013.6
20260504230610 59 257 1.7 1.7 0.00 0.03 0.03 87 1013.4
20260504230110 58 257 1.7 2.6 0.00 0.03 0.03 86 1013.4
20260504225607 59 260 1.7 1.7 0.00 0.03 0.03 87 1013.7
20260504225103 59 271 1.7 1.7 0.00 0.03 0.03 87 1013.7
20260504224600 60 267 1.7 1.7 0.00 0.03 0.03 86 1013.6
20260504224057 61 282 2.6 2.6 0.00 0.03 0.03 82 1013.8
20260504223554 62 334 1.7 2.6 0.00 0.03 0.03 79 1013.8
20260504223050 62 347 1.7 2.6 0.00 0.03 0.03 78 1013.7
20260504222547 62 338 0.9 1.7 0.00 0.03 0.03 79 1013.7
20260504222044 63 13 1.7 2.6 0.00 0.03 0.03 79 1013.7
20260504221542 66 90 0.0 0.0 0.00 0.03 0.03 66 1013.8
20260504221038 65 83 0.0 0.0 0.00 0.03 0.03 70 1013.8
20260504220534 64 83 0.0 0.0 0.00 0.03 0.03 73 1014.0
20260504220032 63 83 0.9 0.9 0.00 0.03 0.03 71 1014.0
20260504215528 62 77 0.0 0.0 0.00 0.03 0.03 73 1014.0
20260504215026 62 73 0.9 1.7 0.00 0.03 0.03 74 1014.1
20260504214521 62 346 0.9 1.7 0.00 0.03 0.03 73 1014.0
20260504214018 61 285 1.7 1.7 0.00 0.03 0.03 74 1014.0
20260504213514 59 240 1.7 2.6 0.00 0.03 0.03 77 1014.0
20260504213012 58 257 0.0 0.9 0.00 0.03 0.03 84 1014.2
20260504212507 57 269 0.9 2.6 0.00 0.03 0.03 85 1014.1
20260504212005 56 258 1.7 2.6 0.00 0.03 0.03 93 1013.7
20260504211501 56 239 0.9 2.6 0.00 0.03 0.03 90 1013.7
20260504210959 55 317 2.6 5.2 0.00 0.03 0.03 89 1013.6
20260504210456 54 283 3.5 5.2 0.05 0.03 0.03 89 1013.2
20260504205952 55 178 2.6 2.6 0.05 0.03 0.03 90 1014.3
20260504205450 55 303 1.7 3.5 0.12 0.02 0.02 82 1015.3
20260504204948 56 265 3.5 8.7 0.12 0.02 0.02 82 1015.2
20260504204446 67 75 7.8 13.9 0.00 0.00 0.00 51 1014.7
20260504203945 67 258 0.9 2.6 0.00 0.00 0.00 46 1013.6
20260504203442 68 268 4.3 6.1 0.00 0.00 0.00 44 1013.1
20260504202938 69 231 2.6 7.8 0.00 0.00 0.00 43 1012.9
20260504202435 70 206 3.5 5.2 0.00 0.00 0.00 42 1013.0
20260504201932 70 343 2.6 6.1 0.00 0.00 0.00 44 1013.0
20260504201429 71 270 7.0 8.7 0.00 0.00 0.00 41 1013.4
20260504200927 71 185 3.5 11.3 0.00 0.00 0.00 42 1013.2
20260504200423 70 240 3.5 7.8 0.00 0.00 0.00 42 1013.1
20260504195920 71 292 3.5 7.0 0.00 0.00 0.00 47 1012.9
20260504195416 71 177 1.7 3.5 0.00 0.00 0.00 46 1013.0
20260504194912 70 308 6.1 7.8 0.00 0.00 0.00 44 1013.1
20260504194408 70 270 4.3 7.0 0.00 0.00 0.00 45 1013.4
20260504193904 70 336 1.7 7.0 0.00 0.00 0.00 45 1013.2
20260504193402 69 208 3.5 6.1 0.00 0.00 0.00 44 1013.5
20260504192900 69 295 1.7 7.0 0.00 0.00 0.00 43 1013.1
20260504192357 69 251 3.5 7.0 0.00 0.00 0.00 43 1013.5
20260504191856 69 277 1.7 1.7 0.00 0.00 0.00 49 1013.4
20260504191354 70 79 1.7 5.2 0.00 0.00 0.00 45 1013.5
20260504190849 69 127 4.3 7.0 0.00 0.00 0.00 43 1013.5
20260504190345 68 281 4.3 7.8 0.00 0.00 0.00 46 1013.6
20260504185841 69 300 2.6 8.7 0.00 0.00 0.00 50 1013.6
20260504185339 70 287 0.9 2.6 0.00 0.00 0.00 45 1013.4
20260504184834 69 297 0.0 2.6 0.00 0.00 0.00 45 1013.8
20260504184331 68 315 2.6 6.1 0.00 0.00 0.00 51 1013.9
20260504183827 68 63 1.7 2.6 0.00 0.00 0.00 51 1013.8
20260504183324 67 236 1.7 2.6 0.00 0.00 0.00 53 1014.1
20260504182822 68 290 2.6 7.8 0.00 0.00 0.00 46 1014.0
20260504182319 67 278 0.9 1.7 0.00 0.00 0.00 49 1014.3
20260504181816 66 251 5.2 7.0 0.00 0.00 0.00 50 1014.2
20260504181314 66 239 2.6 5.2 0.00 0.00 0.00 49 1014.1
20260504180812 65 138 7.8 8.7 0.00 0.00 0.00 50 1014.2
20260504180310 67 193 1.7 5.2 0.00 0.00 0.00 50 1014.4
20260504175808 65 145 3.5 5.2 0.00 0.00 0.00 49 1014.3
20260504175304 65 164 4.3 11.3 0.00 0.00 0.00 51 1014.5
20260504174803 64 319 2.6 5.2 0.00 0.00 0.00 52 1014.6
20260504174300 65 186 2.6 7.8 0.00 0.00 0.00 52 1014.6
20260504173756 64 209 3.5 7.8 0.00 0.00 0.00 52 1014.7
20260504173253 65 147 3.5 6.1 0.00 0.00 0.00 50 1014.6
20260504172750 65 236 0.9 2.6 0.00 0.00 0.00 55 1014.7
20260504172247 64 288 2.6 5.2 0.00 0.00 0.00 56 1015.1
20260504171743 64 216 4.3 12.2 0.00 0.00 0.00 51 1014.9
20260504171240 65 16 1.7 3.5 0.00 0.00 0.00 53 1015.2
20260504170737 64 291 2.6 5.2 0.00 0.00 0.00 49 1015.4
20260504170234 62 1 0.0 0.9 0.00 0.00 0.00 55 1015.5
20260504160153 57 284 0.0 1.7 0.00 0.00 0.00 57 1016.5
20260504151120 56 220 0.0 2.6 0.00 0.00 0.00 57 1016.8
20260504150618 56 226 1.7 5.2 0.00 0.00 0.00 56 1017.1
20260504150115 55 263 0.0 1.7 0.00 0.00 0.00 60 1017.0
20260504141043 53 279 2.6 3.5 0.00 0.00 0.00 57 1016.9
20260504140540 54 217 3.5 7.8 0.00 0.00 0.00 55 1017.0
20260504130504 49 63 0.0 1.7 0.00 0.00 0.00 78 1016.8
20260504110351 37 275 0.0 0.0 0.00 0.00 0.00 96 1017.0
20260504100309 38 315 0.0 0.0 0.00 0.00 0.00 95 1016.7
20260504081702 42 258 0.9 0.9 0.00 0.00 0.00 90 1016.8
20260504081158 42 258 0.0 0.0 0.00 0.00 0.00 91 1016.8
20260504080655 42 259 0.0 0.9 0.00 0.00 0.00 92 1016.8
20260504080152 42 259 0.9 0.9 0.00 0.00 0.00 92 1016.8
20260504070119 44 349 0.9 1.7 0.00 0.00 0.00 84 1017.3
20260504050508 44 303 0.0 0.0 0.00 0.00 0.00 81 1017.4
20260504050005 44 303 0.0 0.0 0.00 0.00 0.00 82 1017.3
20260504045500 44 303 0.0 0.0 0.00 0.00 0.00 81 1017.2
20260504044957 44 303 0.0 0.0 0.00 0.00 0.00 79 1017.2
20260504044454 44 303 0.0 0.0 0.00 0.00 0.00 80 1017.1
20260504043951 44 303 0.0 0.0 0.00 0.00 0.00 77 1017.2
20260504043448 44 304 0.0 0.9 0.00 0.00 0.00 81 1017.2
20260504042946 45 301 0.0 0.0 0.00 0.00 0.00 82 1017.1
20260504042442 45 301 0.0 0.0 0.00 0.00 0.00 76 1017.1
20260504041939 45 301 0.0 0.0 0.00 0.00 0.00 72 1017.0
20260504041435 45 301 0.0 0.9 0.00 0.00 0.00 66 1017.1
20260504040931 45 314 0.0 0.0 0.00 0.00 0.00 71 1017.0
20260504040429 45 348 0.0 0.0 0.00 0.00 0.00 67 1017.1
20260504035925 45 348 0.0 0.0 0.00 0.00 0.00 72 1017.2
20260504035423 45 348 0.0 0.0 0.00 0.00 0.00 69 1017.1